Lapse_Rate
5.7 5.5 6.0 6.3 6.0 6.4 5.6 4.9 4.8 4.8 4.4 4.4 4.6 4.5 4.7 4.9 5.1 5.4 5.2 5.6 6.1 6.3 7.1 7.7 8.1 8.6 8.5 8.8 9.2 9.3 9.1 9.1 8.5 9.0 9.4 9.6 9.4 9.3 9.5 9.2 9.5 8.4 9.1
4.7 6.1 7.0 7.5 7.0 7.2 6.9 5.9 5.5 5.1 4.8 4.3 4.2 4.5 4.7 4.9 5.0 5.2 5.5 5.7 6.0 6.2 6.6 7.2 7.8 8.6 8.2 8.0 8.7 9.1 9.2 9.3 8.8 8.5 9.1 9.0 9.0 9.2 9.2 8.8 9.0 7.3 7.7
4.6 5.0 6.3 7.2 7.4 6.9 7.1 6.7 6.3 6.3 5.8 5.1 4.9 4.5 4.6 4.8 4.9 4.9 5.2 5.8 6.1 6.2 6.8 7.5 7.7 7.9 7.7 8.0 8.4 9.0 9.2 9.4 9.1 8.7 8.6 9.0 8.9 9.1 8.7 8.9 7.6 6.5 6.9
3.5 4.4 5.1 5.9 5.6 6.2 7.0 6.3 5.5 6.1 5.8 5.5 4.9 4.6 4.4 4.8 5.1 5.2 5.3 5.4 5.8 6.4 6.3 6.5 7.1 7.2 6.9 7.3 8.4 9.0 9.3 9.0 9.0 8.7 8.7 8.6 8.6 8.9 8.7 7.3 5.2 5.5 6.0
2.6 2.8 3.1 4.3 4.8 5.1 5.0 4.8 5.4 5.7 5.9 5.8 6.1 5.3 4.7 4.6 4.8 4.7 4.7 4.8 4.9 5.7 5.9 5.7 5.6 5.9 6.8 7.2 7.7 8.1 8.7 8.8 8.4 8.6 8.5 8.3 8.1 8.0 7.3 6.5 6.6 4.9 4.5
1.7 2.2 2.6 2.7 3.4 3.4 3.7 4.2 4.6 5.1 5.0 6.0 5.9 5.6 4.8 4.3 4.1 3.9 4.4 4.6 4.9 5.1 5.4 5.6 5.5 5.6 5.5 6.2 7.0 7.4 7.4 8.5 8.2 8.5 8.5 7.9 8.3 7.3 7.1 5.9 5.1 5.4 4.7
2.0 2.6 2.7 2.8 2.8 2.9 2.3 2.6 2.9 3.5 4.9 4.7 4.9 5.7 5.0 4.3 4.1 4.1 3.9 4.6 5.1 5.3 5.2 5.3 5.7 6.2 5.1 5.0 6.0 6.9 8.9 9.0 9.3 8.8 8.4 8.1 7.4 5.6 5.8 3.3 4.2 4.7 4.6
2.1 2.7 3.1 3.0 2.6 2.7 3.1 2.7 2.7 3.1 3.5 4.1 4.6 4.8 5.2 4.9 4.5 4.2 4.1 3.9 4.4 5.5 5.9 5.4 5.2 5.8 5.8 5.0 5.6 6.2 6.9 7.5 8.3 8.5 7.7 7.2 7.3 6.4 6.6 7.5 6.0 3.7 4.0
2.8 3.0 3.3 3.2 3.0 2.7 2.3 2.1 2.4 2.6 2.8 2.9 3.3 3.8 4.3 4.1 4.3 4.5 4.3 4.5 4.6 4.7 5.6 6.2 5.8 5.3 6.1 6.7 5.6 5.7 6.0 7.0 8.6 8.9 7.9 7.2 7.0 6.9 6.4 5.8 5.4 7.1 6.0
4.3 3.8 3.9 3.8 3.3 3.1 3.0 2.5 2.5 2.6 2.8 3.6 3.7 3.5 3.6 3.9 4.3 4.1 4.2 4.7 5.5 5.5 5.7 6.0 6.0 5.2 5.9 6.6 5.8 5.0 3.8 3.0 6.5 8.1 7.0 6.3 6.1 6.0 6.2 5.5 5.8 6.1 6.2
4.7 4.0 3.6 3.9 3.8 3.9 3.7 3.6 3.5 3.3 3.7 3.9 3.9 3.8 3.9 3.8 3.8 4.4 4.1 4.2 5.1 6.1 6.3 6.3 5.8 4.9 5.3 6.2 6.3 5.4 4.6 4.1 5.8 6.4 6.8 6.5 6.0 6.1 5.6 5.9 6.3 6.2 5.7
4.0 3.2 3.6 3.9 4.0 3.9 3.2 3.0 3.4 3.8 3.7 3.7 4.1 4.1 4.1 3.9 4.0 3.6 3.9 3.8 4.4 6.2 6.6 6.7 6.3 5.0 4.9 5.5 6.1 6.2 6.8 7.9 6.4 6.8 7.1 7.3 7.0 6.7 6.0 5.2 5.8 5.7 6.0
4.1 3.7 3.8 4.5 4.6 4.5 4.1 3.7 3.1 3.6 3.9 3.8 4.3 4.4 4.3 4.8 4.4 4.0 3.0 3.9 3.9 5.2 6.8 7.3 7.3 5.7 5.2 5.7 6.2 6.3 7.1 8.2 7.3 7.3 8.0 7.9 8.3 8.2 8.8 6.4 5.9 5.7 5.6
3.6 3.9 4.4 4.2 3.7 3.8 3.8 4.0 3.8 3.9 4.4 4.3 4.4 4.8 5.2 5.8 6.3 6.2 4.6 3.1 3.9 4.9 5.8 7.1 7.4 6.7 5.7 5.5 6.2 6.8 7.3 7.5 6.7 7.2 8.3 8.4 8.0 7.9 7.0 6.2 5.4 5.9 5.6
3.7 4.3 4.5 4.2 3.6 3.4 3.9 4.2 4.6 4.3 4.5 4.8 5.1 5.4 6.2 6.1 6.8 7.2 6.4 4.8 3.7 4.1 5.2 6.3 7.3 6.7 6.1 5.5 6.0 6.2 6.4 7.3 7.1 7.7 7.9 8.1 7.5 7.3 6.7 7.1 5.8 5.7 5.8
4.2 4.4 4.4 4.1 3.5 3.7 3.6 3.1 3.4 3.2 3.2 3.6 3.6 4.1 4.8 5.7 5.9 6.2 6.9 6.0 5.3 5.8 5.9 6.9 7.6 6.5 5.9 5.7 5.8 5.9 6.1 6.9 6.8 6.9 6.8 7.4 7.1 7.2 6.9 7.0 6.2 5.4 5.3
4.2 4.6 4.2 3.3 3.3 3.8 4.0 3.9 4.2 3.3 3.4 2.7 2.8 2.8 3.1 3.4 4.0 4.7 5.1 6.1 5.8 6.1 7.3 6.8 7.7 7.9 7.0 6.5 6.3 6.4 5.9 5.7 6.1 6.2 6.1 6.7 7.1 7.5 7.4 6.7 6.3 5.9 6.1
3.3 2.7 2.6 2.7 2.9 3.1 3.1 3.8 4.2 4.3 3.7 3.4 3.9 4.2 3.5 3.7 3.8 3.8 4.2 5.7 5.5 5.3 4.9 6.5 7.7 8.0 7.6 7.3 7.0 6.9 6.7 6.4 5.9 5.7 6.1 6.3 6.9 6.9 6.9 6.0 6.1 5.9 6.2
2.2 2.8 3.4 3.4 3.2 3.0 3.1 3.4 4.2 4.7 5.0 4.6 4.2 4.3 5.1 4.6 3.9 4.0 4.7 5.3 5.4 4.8 3.9 4.6 6.2 7.5 7.5 7.5 7.4 6.9 6.8 6.4 5.5 5.0 5.5 5.7 6.2 6.8 6.4 5.7 5.7 7.2 6.7
2.7 2.2 1.8 2.7 3.3 3.2 3.6 3.7 4.2 4.6 5.0 4.9 4.7 4.9 5.8 6.6 5.1 5.0 5.0 5.2 5.0 5.2 5.8 5.1 5.5 6.4 7.1 6.9 6.9 6.8 6.7 6.8 6.3 5.6 4.9 5.6 5.8 6.4 6.3 5.8 5.4 5.4 4.8
2.7 2.7 2.4 2.6 3.4 3.8 4.0 4.7 5.3 5.5 5.9 5.2 5.5 6.1 7.2 6.9 6.0 6.7 7.4 7.5 6.7 6.2 6.0 7.0 6.7 6.4 6.8 6.7 6.5 6.4 6.1 6.1 5.7 5.2 4.7 5.3 5.9 6.0 6.2 6.4 5.9 5.6 5.2
2.8 3.3 3.8 3.2 3.1 2.5 2.6 3.0 3.5 5.1 6.4 7.0 7.2 7.8 7.9 8.2 7.2 6.4 6.6 7.0 8.1 7.9 7.5 7.5 7.7 7.3 6.6 6.2 5.8 5.7 5.0 5.0 5.1 4.7 4.7 5.0 5.6 5.9 6.1 6.3 6.5 5.8 5.6
3.4 3.6 3.4 3.5 3.3 2.9 2.9 3.4 3.5 3.5 4.5 5.4 6.4 7.4 8.3 8.5 8.5 8.4 7.9 7.8 7.8 7.8 8.1 7.9 8.0 7.6 7.6 7.0 6.4 5.7 4.7 4.3 4.3 4.1 4.4 4.5 5.1 5.8 5.9 6.1 6.5 6.3 5.8
3.1 3.5 3.2 3.1 2.6 2.7 3.3 4.7 6.2 7.3 7.1 6.9 7.3 7.6 7.4 7.4 7.1 7.5 8.1 8.4 8.1 8.0 7.4 7.7 7.7 7.5 7.6 7.4 6.7 6.1 5.3 5.2 5.1 4.6 4.6 4.5 4.8 5.3 5.9 5.9 6.0 6.2 5.7
3.5 3.2 3.0 2.8 3.3 4.4 5.9 6.8 7.7 7.8 7.5 7.6 7.6 7.7 7.8 7.7 7.2 7.2 7.0 7.3 7.8 7.8 7.2 7.0 7.4 7.4 7.8 7.6 6.6 6.0 5.1 4.6 5.1 4.7 4.9 4.8 4.7 4.7 5.3 5.8 5.7 5.7 5.8
3.0 2.6 3.0 3.9 4.8 5.6 6.8 7.2 7.0 6.8 7.0 7.1 7.2 7.2 7.0 6.9 6.8 6.8 6.8 7.0 6.5 6.6 6.9 7.0 6.9 6.8 6.9 7.3 7.4 5.9 4.7 3.9 4.7 4.5 5.0 4.5 4.6 4.9 5.2 5.7 5.8 5.4 5.5
Wind_Speed
13 14 15 14 15 15 14 14 13 12 13 13 13 12 13 12 12 11 11 11 11 10 9 9 10 9 7 6 6 6 7 6 8 8 8 9 9 8 10 14 16 17 16
11 13 13 13 14 14 14 14 13 14 13 14 14 13 13 13 13 13 12 11 12 11 11 10 10 7 9 8 6 8 8 8 7 11 8 7 8 7 7 9 11 17 16
10 11 11 12 13 14 14 13 14 14 14 14 13 14 14 13 13 13 13 12 12 12 11 11 10 10 10 8 8 7 7 7 6 7 8 6 5 5 6 7 8 13 16
8 10 10 11 12 12 12 13 14 14 14 15 15 14 14 13 14 13 13 13 12 12 11 10 11 11 10 9 8 8 8 7 7 7 7 7 4 5 3 7 8 8 9
7 9 10 10 10 11 11 12 12 13 13 14 14 14 13 13 11 14 14 14 13 12 11 11 11 13 17 14 7 7 7 5 7 7 7 5 4 3 3 3 6 8 9
7 8 8 9 10 9 10 11 11 12 13 13 14 15 15 12 20 22 16 13 13 13 12 12 12 16 17 20 19 19 14 8 9 6 7 6 6 2 1 2 3 8 7
6 7 8 8 9 9 10 11 11 12 12 14 14 14 15 15 21 22 23 13 12 13 13 11 10 9 15 11 16 19 20 19 19 9 9 8 6 1 1 3 3 2 7
6 6 7 8 9 9 9 10 10 10 12 12 13 14 14 12 21 23 24 16 13 14 13 13 12 11 11 11 10 10 10 10 10 8 9 8 6 3 4 5 3 4 5
6 7 7 8 8 8 9 10 10 10 11 12 12 14 15 14 20 22 20 15 15 15 13 13 13 12 16 19 10 9 9 8 13 15 14 15 16 14 11 3 5 5 4
7 6 6 6 7 8 9 9 9 10 11 9 12 12 16 14 19 21 20 11 14 11 13 14 20 15 20 21 11 10 8 6 5 5 7 10 14 12 11 6 5 4 3
4 5 5 6 7 7 7 7 8 8 9 10 11 10 12 14 14 19 23 14 11 11 10 10 10 23 24 22 21 11 11 8 11 8 6 5 5 5 4 7 8 3 3
7 6 6 6 6 6 7 7 8 8 9 10 10 10 9 11 17 18 22 27 21 13 12 10 10 19 24 25 18 20 19 14 6 7 6 6 5 5 4 5 6 7 9
7 7 7 7 7 7 7 7 7 8 8 9 8 8 9 9 10 20 22 24 27 16 11 11 15 18 22 20 24 21 20 9 7 7 8 6 6 5 5 4 8 10 10
9 8 7 7 6 6 5 6 6 7 7 8 8 8 8 8 8 8 9 12 20 17 18 10 9 13 17 15 14 15 10 8 9 8 6 5 4 4 3 4 4 3 4
10 8 7 5 5 6 6 6 7 8 9 8 9 8 8 8 8 10 11 9 9 14 13 10 8 8 9 9 9 10 10 9 10 8 6 5 4 4 5 4 3 3 3
9 6 5 4 3 5 5 6 10 15 17 18 19 14 10 14 11 9 12 15 12 16 12 10 11 10 11 10 11 10 10 14 10 8 6 5 4 5 4 4 3 4 4
8 5 3 3 4 5 5 5 8 7 12 17 20 20 20 20 19 13 14 13 16 13 9 11 11 11 11 11 11 11 11 10 10 9 8 7 6 5 6 4 4 4 4
4 5 4 5 4 4 5 6 6 7 8 8 8 14 15 16 19 19 18 10 9 13 10 11 11 11 10 11 11 11 10 9 10 10 9 8 7 6 5 5 4 4 4
5 5 5 4 4 5 4 5 6 7 8 8 8 8 9 14 15 16 18 11 10 10 10 11 11 10 10 10 10 10 11 10 11 10 10 9 8 7 6 5 5 8 7
4 6 6 5 4 4 4 5 6 7 7 7 7 7 5 6 5 5 8 10 11 10 9 10 10 10 10 10 10 9 10 11 10 10 10 9 9 8 7 7 5 4 4
4 4 5 4 4 4 5 6 6 6 7 7 7 8 12 6 7 7 7 8 10 10 10 9 9 10 9 9 9 10 11 10 11 11 10 10 10 9 8 7 6 5 5
3 3 4 3 4 4 5 6 7 7 7 7 8 8 12 6 7 8 9 8 7 9 8 9 8 9 9 9 10 10 11 11 11 11 11 10 10 10 9 8 7 6 5
4 4 3 3 4 6 6 6 5 6 6 6 8 9 9 8 7 8 8 8 7 7 7 8 8 8 9 10 10 11 11 12 12 12 12 11 10 10 10 10 9 8 7
3 4 4 4 4 5 6 6 6 7 7 7 7 7 7 7 8 10 10 8 8 7 8 7 9 10 10 10 9 9 9 11 13 12 15 12 12 12 9 10 10 9 8
4 4 3 4 4 5 6 5 5 6 7 7 7 8 8 7 8 8 8 9 9 8 8 8 7 10 13 14 12 13 16 20 18 19 11 13 14 16 12 10 11 9 8
3 3 4 4 5 5 5 5 6 7 7 7 7 8 8 8 8 8 8 8 7 7 7 7 8 9 11 12 14 17 17 20 18 23 16 11 12 11 11 12 15 10 10
Wind_Direction
229 224 225 221 221 221 218 218 214 211 208 210 208 210 214 215 212 217 218 225 230 232 235 240 247 252 254 257 253 255 260 265 276 292 295 305 315 321 328 331 321 337 331
237 236 230 226 225 226 224 220 218 215 214 211 210 211 213 213 216 217 222 220 224 234 234 237 241 242 246 250 256 257 259 269 277 288 295 301 305 316 329 326 341 335 333
238 235 229 229 227 229 226 222 221 222 218 217 216 214 215 216 214 218 220 223 226 225 231 236 235 231 239 240 244 250 258 267 270 277 292 293 300 315 335 323 348 329 326
240 236 231 228 227 231 231 224 222 219 219 217 214 218 216 217 220 220 220 222 226 228 226 230 238 235 236 242 246 254 258 263 268 275 282 286 322 324 345 336 321 333 320
227 231 230 230 232 224 231 231 233 226 226 226 223 217 218 218 218 217 217 220 222 227 226 222 227 232 239 238 238 243 256 260 270 270 277 291 300 301 328 308 319 323 324
220 229 227 220 225 229 230 233 236 233 229 233 229 225 217 219 220 218 216 216 219 221 225 225 224 228 234 239 241 242 249 261 259 274 282 286 292 290 2 318 312 327 331
225 224 225 223 227 229 220 226 230 232 235 231 232 233 229 223 222 221 217 221 217 221 220 221 225 220 221 225 235 239 245 252 252 258 273 278 293 312 266 273 237 236 294
228 229 226 227 227 230 236 234 233 232 232 237 237 233 235 232 229 221 222 220 223 226 226 221 219 225 215 208 223 226 232 235 237 241 247 259 280 217 269 285 239 221 278
227 231 225 221 233 231 231 233 236 234 234 230 230 232 232 233 228 228 218 220 224 224 224 223 220 221 224 220 212 220 230 237 236 240 251 267 272 276 272 284 270 277 299
226 223 235 233 226 231 242 239 238 235 242 242 241 231 231 238 231 222 217 222 225 223 220 222 218 219 223 222 214 210 217 225 233 233 214 243 254 255 249 233 264 273 295
197 215 224 244 251 256 253 245 245 250 254 251 250 246 239 234 232 228 216 219 228 224 218 216 212 216 224 223 216 209 213 201 226 233 242 240 239 240 238 212 237 258 269
214 217 224 228 232 241 245 255 250 245 245 245 250 257 249 241 233 226 222 219 225 228 222 216 208 207 217 220 217 217 216 209 202 219 215 227 224 223 211 205 223 253 265
226 236 242 244 245 246 255 255 248 246 247 252 246 242 247 235 235 228 222 224 224 235 229 220 201 197 213 219 216 214 214 213 199 220 222 218 220 215 213 196 214 222 246
236 235 239 240 245 258 244 246 244 253 246 243 251 248 247 246 240 227 219 225 232 229 234 226 206 197 202 210 212 214 211 206 202 222 218 223 200 166 204 224 215 210 222
230 239 243 246 250 260 256 255 256 248 244 252 247 247 253 248 244 236 216 210 209 214 215 220 201 201 204 208 205 201 203 203 207 217 211 221 189 175 216 208 207 229 218
226 235 246 264 265 267 269 274 246 247 256 257 261 258 264 270 268 272 252 217 212 205 206 210 209 201 204 203 203 200 199 203 205 200 208 214 197 193 207 193 196 220 224
225 243 249 239 256 266 278 284 293 284 252 254 252 255 253 256 260 266 246 243 228 228 220 213 215 207 204 204 201 201 201 200 191 197 199 207 205 197 204 197 187 213 225
224 251 251 246 248 257 270 282 282 286 295 297 271 251 256 254 254 246 244 245 237 227 224 221 217 214 206 206 202 200 199 195 194 198 201 198 202 198 197 194 204 194 213
190 228 241 253 254 262 272 276 279 282 285 291 297 280 274 247 254 258 233 229 234 226 215 218 219 212 209 205 203 200 196 195 195 194 199 197 197 195 197 191 196 198 202
211 227 247 257 259 265 271 276 283 283 285 287 290 294 292 287 265 255 225 226 227 233 225 214 217 219 209 204 198 196 196 195 193 197 193 199 193 191 195 192 188 173 179
202 211 228 254 273 284 292 284 285 289 288 289 292 290 292 287 284 279 263 227 231 230 230 224 210 216 211 205 196 193 193 196 195 195 191 195 193 189 189 194 187 184 173
215 226 237 264 281 290 291 295 294 296 301 305 306 303 300 275 272 275 272 269 256 229 228 228 222 214 204 200 196 193 192 196 195 192 190 189 192 188 183 189 185 180 182
221 242 255 269 281 289 294 291 291 297 299 302 304 310 311 297 286 278 277 275 264 262 234 229 229 223 209 201 196 196 193 197 197 190 188 184 187 188 184 184 183 181 182
217 244 265 276 282 288 289 296 294 287 286 284 287 287 285 288 298 296 288 285 281 264 256 238 229 223 216 206 201 198 197 198 194 193 185 181 184 183 183 182 182 181 178
227 254 275 283 282 284 292 296 298 302 304 298 291 289 293 289 282 281 285 289 281 265 253 252 239 225 220 211 202 200 197 193 191 187 185 183 183 182 183 183 178 176 174
232 260 269 275 284 292 300 302 293 301 302 295 293 295 294 291 287 282 279 276 277 281 266 254 245 227 221 225 214 202 191 188 189 184 181 180 180 181 181 180 178 174 172